CW0561 Weather Reports


Display with metric or nautical units.
time (UTC)temp
F
wind
direction
speed
MPH
gust
MPH
rain 1hr
in
rain 24hr
in
rain mn
in
humidity
%
barometer
mb
20221206111907 11 19 0.0 5.0 0.00 0.00 0.00 79 1014.3
20221206110907 12 23 2.0 8.0 0.00 0.00 0.00 79 1014.6
20221206105907 12 53 7.0 8.0 0.00 0.00 0.00 79 1014.7
20221206104907 12 24 2.0 11.0 0.00 0.00 0.00 80 1014.6
20221206102909 12 24 2.0 8.0 0.00 0.00 0.00 81 1014.7
20221206101907 12 5 5.0 8.0 0.00 0.00 0.00 82 1014.9
20221206095909 12 355 0.0 0.0 0.00 0.00 0.00 82 1014.9
20221206094907 12 355 0.0 5.0 0.00 0.00 0.00 83 1015.3
20221206092907 12 344 4.0 6.0 0.00 0.00 0.00 84 1015.1
20221206090907 11 323 0.0 0.0 0.00 0.00 0.00 84 1015.1
20221206084908 11 322 0.0 0.0 0.00 0.00 0.00 83 1015.1
20221206082907 12 323 0.0 0.0 0.00 0.00 0.00 83 1015.8
20221206081907 12 323 0.0 0.0 0.00 0.00 0.00 83 1015.7
20221206080907 13 323 0.0 0.0 0.00 0.00 0.00 83 1015.6
20221206075907 13 323 0.0 0.0 0.00 0.00 0.00 82 1015.4
20221206074907 12 323 0.0 0.0 0.00 0.00 0.00 82 1015.2
20221206072907 13 322 0.0 0.0 0.00 0.00 0.00 81 1015.3
20221206071907 13 323 0.0 0.0 0.00 0.00 0.00 80 1015.4
20221206070907 13 322 0.0 0.0 0.00 0.00 0.00 80 1015.3
20221206065907 13 323 0.0 0.0 0.00 0.00 0.00 79 1015.2
20221206064907 14 322 0.0 0.0 0.00 0.00 0.00 79 1015.4
20221206062907 14 323 0.0 0.0 0.00 0.00 0.00 77 1015.1
20221206061907 14 322 0.0 0.0 0.00 0.00 0.00 76 1015.1
20221206060907 15 323 0.0 0.0 0.00 0.00 0.00 76 1015.1
20221206055907 15 322 0.0 0.0 0.00 0.00 0.00 76 1015.0
20221206054907 15 322 0.0 0.0 0.00 0.00 0.00 75 1015.1
20221206053907 16 322 0.0 3.0 0.00 0.00 0.00 75 1015.0
20221206052907 16 323 0.0 5.0 0.00 0.00 0.00 74 1014.9
20221206050907 17 322 0.0 6.0 0.00 0.00 0.00 74 1014.9
20221206045907 17 329 5.0 6.0 0.00 0.00 0.00 73 1014.6
20221206044907 17 328 4.0 6.0 0.00 0.00 0.00 72 1014.5
20221206043907 17 343 4.0 9.0 0.00 0.00 0.00 72 1014.4
20221206042907 18 300 5.0 6.0 0.00 0.00 0.00 72 1014.7
20221206040907 18 316 0.0 8.0 0.00 0.00 0.00 71 1014.3
20221206034907 19 290 4.0 6.0 0.00 0.00 0.00 70 1014.2
20221206033907 19 312 0.0 6.0 0.00 0.00 0.00 69 1014.3
20221206032907 19 309 4.0 6.0 0.00 0.00 0.00 68 1014.3
20221206031907 19 309 0.0 8.0 0.00 0.00 0.00 67 1014.3
20221206030907 20 319 0.0 5.0 0.00 0.00 0.00 66 1014.2
20221206025907 20 319 4.0 11.0 0.00 0.00 0.00 65 1014.1
20221206024907 20 336 7.0 12.0 0.00 0.00 0.00 65 1014.0
20221206023907 20 315 4.0 8.0 0.00 0.00 0.00 64 1014.0
20221206022908 21 328 7.0 9.0 0.00 0.00 0.00 63 1014.0
20221206021907 21 327 4.0 9.0 0.00 0.00 0.00 62 1014.1
20221206020906 21 317 2.0 8.0 0.00 0.00 0.00 62 1014.0
20221206015907 22 315 0.0 6.0 0.00 0.00 0.00 61 1013.9
20221206014906 22 317 2.0 9.0 0.00 0.00 0.00 60 1013.7
20221206013906 22 320 7.0 14.0 0.00 0.00 0.00 59 1013.6
20221206012906 22 321 0.0 9.0 0.00 0.00 0.00 59 1013.6
20221206011907 23 289 4.0 9.0 0.00 0.00 0.00 58 1013.5
20221206010907 23 331 5.0 11.0 0.00 0.00 0.00 58 1013.3
20221206005907 23 301 0.0 12.0 0.00 0.00 0.00 57 1013.3
20221206004906 24 290 0.0 14.0 0.00 0.00 0.00 58 1013.2
20221206003906 24 284 7.0 17.0 0.00 0.00 0.00 59 1013.3
20221206002906 24 298 7.0 12.0 0.00 0.00 0.00 59 1013.1
20221206001906 25 323 12.0 15.0 0.00 0.00 0.00 60 1013.0
20221206000906 25 275 9.0 12.0 0.00 0.00 0.00 66 1013.1
20221205235906 25 289 11.0 12.0 0.00 0.00 0.00 72 1012.8
20221205234907 25 287 0.0 9.0 0.00 0.00 0.00 74 1012.7
20221205233906 25 302 5.0 9.0 0.00 0.00 0.00 74 1012.7
20221205232906 25 289 4.0 8.0 0.00 0.00 0.00 75 1012.7
20221205231907 25 289 9.0 9.0 0.00 0.00 0.00 74 1012.6
20221205230906 25 288 2.0 12.0 0.00 0.00 0.00 74 1012.5
20221205224907 25 321 2.0 14.0 0.00 0.00 0.00 71 1012.3
20221205223907 26 337 0.0 12.0 0.00 0.00 0.00 69 1012.3
20221205222906 26 317 7.0 15.0 0.00 0.00 0.00 67 1012.2
20221205220906 26 302 14.0 20.0 0.00 0.00 0.00 65 1011.9
20221205214906 27 288 5.0 17.0 0.00 0.00 0.00 63 1011.7
20221205213907 27 302 5.0 18.0 0.00 0.00 0.00 62 1011.4
20221205212906 28 360 9.0 14.0 0.00 0.00 0.00 60 1011.4
20221205211906 28 327 9.0 12.0 0.00 0.00 0.00 61 1011.2
20221205210906 28 328 0.0 15.0 0.00 0.00 0.00 61 1010.9
20221205205906 28 313 5.0 14.0 0.00 0.00 0.00 60 1010.6
20221205204907 28 284 9.0 11.0 0.00 0.00 0.00 59 1010.4
20221205202906 29 288 2.0 12.0 0.00 0.00 0.00 60 1010.3
20221205200907 29 324 0.0 12.0 0.00 0.00 0.00 62 1010.3
20221205195906 29 286 4.0 12.0 0.00 0.00 0.00 62 1010.1
20221205194906 29 321 7.0 12.0 0.00 0.00 0.00 61 1009.9
20221205193906 29 271 11.0 12.0 0.00 0.00 0.00 60 1009.8
20221205192906 29 292 7.0 18.0 0.00 0.00 0.00 59 1009.7
20221205191907 30 332 12.0 12.0 0.00 0.00 0.00 60 1009.6
20221205190906 30 317 9.0 14.0 0.00 0.00 0.00 65 1009.5
20221205185906 30 286 7.0 12.0 0.00 0.00 0.00 67 1009.4
20221205184906 30 278 5.0 11.0 0.00 0.00 0.00 68 1009.5
20221205183906 30 288 12.0 11.0 0.00 0.00 0.00 68 1009.5
20221205182906 29 288 5.0 11.0 0.00 0.00 0.00 66 1009.6
20221205181906 29 303 5.0 15.0 0.00 0.00 0.00 67 1009.4
20221205180906 29 292 0.0 9.0 0.00 0.00 0.00 70 1009.2
20221205175906 29 292 5.0 9.0 0.00 0.00 0.00 70 1009.0
20221205174907 29 279 2.0 9.0 0.00 0.00 0.00 70 1009.3
20221205173907 29 328 5.0 12.0 0.00 0.00 0.00 70 1009.5
20221205172906 29 336 11.0 11.0 0.00 0.00 0.00 72 1009.6
20221205171906 29 301 11.0 12.0 0.00 0.00 0.00 72 1009.7
20221205170906 28 321 5.0 12.0 0.00 0.00 0.00 73 1009.6
20221205165906 28 255 7.0 17.0 0.00 0.00 0.00 73 1009.7
20221205164906 28 313 0.0 14.0 0.00 0.00 0.00 73 1009.7
20221205163907 28 286 14.0 15.0 0.00 0.00 0.00 73 1009.8
20221205162906 28 284 7.0 12.0 0.00 0.00 0.00 74 1009.8
20221205161906 28 288 11.0 14.0 0.00 0.00 0.00 74 1009.6
20221205160906 28 282 4.0 15.0 0.00 0.00 0.00 74 1009.4
20221205155906 28 272 9.0 11.0 0.00 0.00 0.00 74 1009.4
20221205154906 28 286 5.0 15.0 0.00 0.00 0.00 75 1009.2
20221205153906 28 318 9.0 9.0 0.00 0.00 0.00 75 1009.1
20221205152906 28 312 4.0 12.0 0.00 0.00 0.00 75 1009.0
20221205151906 27 259 5.0 14.0 0.00 0.00 0.00 75 1008.8
20221205150905 27 313 9.0 9.0 0.00 0.00 0.00 76 1008.7
20221205143905 27 295 0.0 9.0 0.00 0.00 0.00 76 1008.3
20221205142905 27 311 7.0 11.0 0.00 0.00 0.00 77 1008.3
20221205140905 27 303 7.0 12.0 0.00 0.00 0.00 77 1008.1
20221205134905 27 305 4.0 11.0 0.00 0.00 0.00 78 1007.7
20221205133905 27 292 0.0 9.0 0.00 0.00 0.00 84 1007.5
20221205132905 27 299 0.0 8.0 0.00 0.00 0.00 84 1007.3
20221205131906 27 339 0.0 11.0 0.00 0.00 0.00 78 1007.2
20221205130905 27 295 5.0 11.0 0.00 0.00 0.00 78 1007.2
20221205125905 27 307 5.0 6.0 0.00 0.00 0.00 78 1006.9
20221205123906 27 312 0.0 6.0 0.00 0.00 0.00 78 1006.7
20221205120905 27 284 0.0 8.0 0.00 0.00 0.00 78 1006.4
20221205115905 27 304 2.0 9.0 0.00 0.00 0.00 77 1006.4
20221205114905 27 284 0.0 6.0 0.00 0.00 0.00 77 1006.3
20221205113906 27 290 0.0 8.0 0.00 0.00 0.00 77 1006.1